#�ϑ�����,���ϕ���,���ϕ���,�ő啗��,�ő啗����������,�ő�u�ԕ���,�ő�u�ԕ�����������
#(�N����),(m/s)   ,(16����),(m/s)   ,(16����)        ,(m/s)       ,(16����)            
2012/10/12 0:01,1.9,11,1.9,11,2.5,12
2012/10/12 0:02,1.8,11,1.9,9,1.3,12
2012/10/12 0:03,1.8,11,1.8,10,1.9,9
2012/10/12 0:04,1.8,11,1.8,10,2.1,10
2012/10/12 0:05,1.7,11,1.8,10,1.4,10
2012/10/12 0:06,1.5,11,1.7,10,1.3,9
2012/10/12 0:07,1.3,10,1.5,10,2.1,8
2012/10/12 0:08,1.2,10,1.3,10,2.2,9
2012/10/12 0:09,1.1,10,1.2,10,2.2,7
2012/10/12 0:10,0.9,9,1.1,11,1.3,7
2012/10/12 0:11,0.8,9,0.9,11,0.8,10
2012/10/12 0:12,0.8,8,0.8,11,1.4,9
2012/10/12 0:13,0.9,8,0.9,11,2.2,9
2012/10/12 0:14,1,8,1,11,2.1,9
2012/10/12 0:15,1,8,1,11,2.4,8
2012/10/12 0:16,1.1,8,1.1,11,3.7,10
2012/10/12 0:17,1.2,8,1.2,10,3.1,10
2012/10/12 0:18,1.4,9,1.4,9,3.3,9
2012/10/12 0:19,1.4,9,1.4,9,3.1,9
2012/10/12 0:20,1.6,9,1.6,9,2.9,9
2012/10/12 0:21,1.6,9,1.6,9,2.1,10
2012/10/12 0:22,1.7,9,1.7,9,2.1,9
2012/10/12 0:23,1.7,9,1.7,9,1.9,8
2012/10/12 0:24,1.7,9,1.7,9,2.5,8
2012/10/12 0:25,1.7,9,1.7,9,2.4,8
2012/10/12 0:26,1.7,9,1.7,9,2.6,9
2012/10/12 0:27,1.8,9,1.8,9,3.5,8
2012/10/12 0:28,1.7,9,1.8,9,2.7,8
2012/10/12 0:29,1.7,9,1.7,9,3.8,10
2012/10/12 0:30,1.7,9,1.8,9,3.3,10
2012/10/12 0:31,1.8,9,1.8,9,3.6,9
2012/10/12 0:32,1.8,9,1.8,9,2,7
2012/10/12 0:33,1.8,9,1.8,9,3.1,9
2012/10/12 0:34,1.8,9,1.9,9,2.2,9
2012/10/12 0:35,1.8,9,1.8,9,2.5,8
2012/10/12 0:36,1.9,9,1.9,9,3.1,9
2012/10/12 0:37,1.8,9,1.9,9,3.3,9
2012/10/12 0:38,1.8,9,1.8,9,3.6,10
2012/10/12 0:39,1.7,9,1.8,9,3.3,9
2012/10/12 0:40,1.6,9,1.7,9,3.1,9
2012/10/12 0:41,1.6,9,1.6,9,2.6,11
2012/10/12 0:42,1.7,9,1.7,9,3,9
2012/10/12 0:43,1.7,9,1.7,9,3.8,8
2012/10/12 0:44,1.9,9,1.9,9,4.1,9
2012/10/12 0:45,2.1,9,2.1,9,5,9
2012/10/12 0:46,2.1,9,2.1,9,4.7,9
2012/10/12 0:47,2.2,9,2.2,9,3.2,10
2012/10/12 0:48,2.2,9,2.2,9,3.3,10
2012/10/12 0:49,2.3,9,2.3,9,2.9,10
2012/10/12 0:50,2.3,10,2.3,9,2.6,9
2012/10/12 0:51,2.2,10,2.3,9,2.2,9
2012/10/12 0:52,2.2,10,2.2,9,2.4,9
2012/10/12 0:53,2.1,10,2.2,9,3.5,10
2012/10/12 0:54,1.9,10,2.1,9,2.2,10
2012/10/12 0:55,1.7,10,1.9,9,1.9,10
2012/10/12 0:56,1.5,10,1.7,9,1,8
2012/10/12 0:57,1.3,10,1.5,9,1,11
2012/10/12 0:58,1.2,10,1.3,9,2.9,9
2012/10/12 0:59,1.2,9,1.2,9,2.5,8
2012/10/12 1:00,1.3,9,1.3,10,3.3,9
2012/10/12 1:01,1.4,9,1.4,10,3.8,8
2012/10/12 1:02,1.4,9,1.4,10,4.1,8
2012/10/12 1:03,1.4,9,1.5,10,5.5,9
2012/10/12 1:04,1.4,9,1.4,10,2.9,9
2012/10/12 1:05,1.4,9,1.4,10,3.5,9
2012/10/12 1:06,1.5,9,1.5,10,2.5,8
2012/10/12 1:07,1.5,9,1.5,9,2.7,7
2012/10/12 1:08,1.5,9,1.5,9,4.1,10
2012/10/12 1:09,1.5,9,1.5,9,3.6,11
2012/10/12 1:10,1.5,9,1.5,9,3.8,11
2012/10/12 1:11,1.4,10,1.5,9,2.2,10
2012/10/12 1:12,1.3,10,1.4,9,2.1,14
2012/10/12 1:13,1.4,11,1.4,9,3.9,16
2012/10/12 1:14,1.5,11,1.5,9,2.7,9
2012/10/12 1:15,1.6,11,1.7,11,6.7,10
2012/10/12 1:16,1.8,11,1.8,11,6.8,9
2012/10/12 1:17,2.1,11,2.1,11,6.1,9
2012/10/12 1:18,2.2,11,2.2,11,4.2,12
2012/10/12 1:19,2.3,11,2.3,11,4.9,12
2012/10/12 1:20,2.3,11,2.3,11,5.4,15
2012/10/12 1:21,2.6,12,2.6,12,6.2,14
2012/10/12 1:22,2.7,12,2.7,12,4.3,14
2012/10/12 1:23,2.6,12,2.7,12,2.6,1
2012/10/12 1:24,2.6,12,2.6,12,2,13
2012/10/12 1:25,2.4,12,2.5,12,2.6,9
2012/10/12 1:26,2.3,12,2.4,12,3.8,9
2012/10/12 1:27,2.1,12,2.2,12,3.3,10
2012/10/12 1:28,2.1,12,2.1,12,3,13
2012/10/12 1:29,2,13,2.1,12,2.7,13
2012/10/12 1:30,1.9,13,2,12,4.8,2
2012/10/12 1:31,1.8,13,1.9,12,4.2,10
2012/10/12 1:32,1.8,12,1.8,12,4.4,9
2012/10/12 1:33,1.9,12,1.9,12,6.5,1
2012/10/12 1:34,2.1,13,2.2,12,11.7,15
2012/10/12 1:35,2.3,14,2.3,12,5.4,1
2012/10/12 1:36,2.5,14,2.5,14,6.1,6
2012/10/12 1:37,2.6,15,2.6,14,3.9,9
2012/10/12 1:38,2.6,16,2.6,14,5.7,7
2012/10/12 1:39,2.6,3,2.6,14,4.1,7
2012/10/12 1:40,2.6,8,2.7,6,5,10
2012/10/12 1:41,2.5,8,2.6,6,3.5,12
2012/10/12 1:42,2.5,8,2.5,6,2.5,4
2012/10/12 1:43,2.4,9,2.5,6,2.7,10
2012/10/12 1:44,2.2,9,2.3,6,5.8,3
2012/10/12 1:45,2.2,8,2.3,6,4.8,5
2012/10/12 1:46,2.1,8,2.2,6,4.5,1
2012/10/12 1:47,1.9,13,2.1,6,2.4,14
2012/10/12 1:48,1.9,15,2,6,3.1,9
2012/10/12 1:49,1.8,1,1.9,6,3.3,9
2012/10/12 1:50,1.7,2,1.9,8,2.2,16
2012/10/12 1:51,1.8,2,1.8,8,5.6,1
2012/10/12 1:52,1.9,3,1.9,8,4.1,8
2012/10/12 1:53,1.9,2,1.9,9,2.7,8
2012/10/12 1:54,1.8,3,1.9,9,2.4,7
2012/10/12 1:55,1.8,4,1.8,8,3.5,6
2012/10/12 1:56,1.8,4,1.8,8,3.3,6
2012/10/12 1:57,1.7,4,1.8,13,3.7,1
2012/10/12 1:58,1.7,5,1.7,16,2.7,9
2012/10/12 1:59,1.9,6,1.9,1,6.1,6
2012/10/12 2:00,2,6,2,6,5.6,7
2012/10/12 2:01,2.1,6,2.1,6,4.7,4
2012/10/12 2:02,2.1,5,2.1,6,4.9,16
2012/10/12 2:03,2.1,5,2.1,6,4.5,1
2012/10/12 2:04,2.1,4,2.1,6,1.6,6
2012/10/12 2:05,2.3,3,2.3,3,6.8,2
2012/10/12 2:06,2.3,3,2.3,3,7.1,6
2012/10/12 2:07,2.4,3,2.4,3,4.3,1
2012/10/12 2:08,2.3,3,2.4,3,2,3
2012/10/12 2:09,2.4,2,2.4,3,6.2,16
2012/10/12 2:10,2.8,2,2.8,2,9.3,3
2012/10/12 2:11,2.9,2,2.9,2,7.8,6
2012/10/12 2:12,3.1,2,3.1,2,5.4,3
2012/10/12 2:13,3.1,3,3.1,2,5,3
2012/10/12 2:14,3.1,3,3.2,3,3.8,4
2012/10/12 2:15,2.8,3,3.1,3,2,16
2012/10/12 2:16,2.7,3,2.8,3,2.9,10
2012/10/12 2:17,2.7,3,2.7,3,3.6,15
2012/10/12 2:18,3,3,3,3,10.3,1
2012/10/12 2:19,3.4,3,3.4,3,12.5,15
2012/10/12 2:20,3.2,3,3.4,3,10.7,2
2012/10/12 2:21,3.1,2,3.2,3,7.2,2
2012/10/12 2:22,3.1,2,3.1,3,7.2,1
2012/10/12 2:23,3,1,3.1,3,4.5,2
2012/10/12 2:24,3.1,1,3.1,3,6.3,1
2012/10/12 2:25,3.4,2,3.4,3,8.2,4
2012/10/12 2:26,3.5,2,3.5,2,8.5,4
2012/10/12 2:27,3.7,2,3.7,2,6.3,15
2012/10/12 2:28,3.6,1,3.8,1,6.9,1
2012/10/12 2:29,3.3,1,3.6,1,4.9,1
2012/10/12 2:30,3.2,1,3.2,1,6.9,16
2012/10/12 2:31,3.3,1,3.3,1,6.9,1
2012/10/12 2:32,3.6,1,3.6,1,10.9,16
2012/10/12 2:33,3.7,1,3.7,1,5.2,16
2012/10/12 2:34,3.7,1,3.7,1,3.5,16
2012/10/12 2:35,3.5,16,3.7,1,4.7,14
2012/10/12 2:36,3.6,16,3.6,1,7.5,2
2012/10/12 2:37,3.5,1,3.7,1,6.7,16
2012/10/12 2:38,3.4,1,3.5,1,8.1,1
2012/10/12 2:39,3.5,1,3.5,1,6.5,16
2012/10/12 2:40,3.5,1,3.6,1,7.4,1
2012/10/12 2:41,3.3,1,3.5,1,4.4,2
2012/10/12 2:42,3.1,1,3.3,1,9.4,2
2012/10/12 2:43,3.3,1,3.3,1,10.5,2
2012/10/12 2:44,3.5,1,3.5,1,7.9,2
2012/10/12 2:45,3.6,1,3.6,16,6.7,1
2012/10/12 2:46,3.5,1,3.6,16,6.4,16
2012/10/12 2:47,3.5,1,3.5,1,6.5,7
2012/10/12 2:48,3.4,1,3.5,1,5.8,7
2012/10/12 2:49,3.3,2,3.4,1,6.3,5
2012/10/12 2:50,3.4,2,3.4,1,10.1,1
2012/10/12 2:51,3.5,1,3.5,1,7.4,16
2012/10/12 2:52,3.5,1,3.5,1,5,11
2012/10/12 2:53,3.3,1,3.5,1,6.2,1
2012/10/12 2:54,3.1,16,3.3,1,4.1,2
2012/10/12 2:55,3.1,1,3.1,1,7,2
2012/10/12 2:56,3.1,3,3.1,1,6.2,3
2012/10/12 2:57,3.1,2,3.2,1,4.9,2
2012/10/12 2:58,3.2,2,3.2,2,4.9,3
2012/10/12 2:59,3.3,1,3.3,2,6.7,16
2012/10/12 3:00,3.1,1,3.3,2,8.3,15
2012/10/12 3:01,3.1,1,3.2,1,7.4,15
2012/10/12 3:02,3.1,1,3.1,1,4.7,14
2012/10/12 3:03,2.9,1,3.1,1,3.2,12
2012/10/12 3:04,3.1,1,3.1,2,9.2,1
2012/10/12 3:05,3.1,1,3.2,2,10.5,2
2012/10/12 3:06,3.4,1,3.4,1,11.8,1
2012/10/12 3:07,3.7,1,3.7,1,8.6,2
2012/10/12 3:08,3.8,1,3.8,1,9.1,1
2012/10/12 3:09,4,16,4,16,9.9,16
2012/10/12 3:10,4.1,1,4.1,16,10.2,16
2012/10/12 3:11,4.1,1,4.1,16,10.5,16
2012/10/12 3:12,4.3,1,4.3,1,11.3,1
2012/10/12 3:13,4.6,1,4.6,1,7.9,16
2012/10/12 3:14,4.8,16,4.8,1,9.8,16
2012/10/12 3:15,4.9,16,5,16,10.1,15
2012/10/12 3:16,5.2,16,5.2,16,13.3,15
2012/10/12 3:17,5.3,16,5.4,16,11.4,15
2012/10/12 3:18,5.5,16,5.6,16,8.9,2
2012/10/12 3:19,5.5,16,5.5,16,8.9,1
2012/10/12 3:20,5.8,16,5.8,16,13.2,1
2012/10/12 3:21,5.8,16,5.9,16,8.7,15
2012/10/12 3:22,5.9,16,5.9,16,11.4,16
2012/10/12 3:23,5.8,16,5.9,16,9.2,16
2012/10/12 3:24,5.6,16,5.7,16,10,16
2012/10/12 3:25,5.8,16,5.8,16,16.5,16
2012/10/12 3:26,5.7,16,5.8,16,15.2,15
2012/10/12 3:27,5.7,16,5.9,16,15.8,16
2012/10/12 3:28,5.4,16,5.6,16,6,16
2012/10/12 3:29,5.2,16,5.4,16,6.5,16
2012/10/12 3:30,5,16,5.2,16,12.5,2
2012/10/12 3:31,5.1,16,5.1,16,10.2,1
2012/10/12 3:32,4.9,16,5.1,16,8.2,16
2012/10/12 3:33,5.5,16,5.5,16,14.8,15
2012/10/12 3:34,5.6,16,5.7,16,12.8,16
2012/10/12 3:35,5.5,16,5.6,16,10.6,1
2012/10/12 3:36,5.3,16,5.5,16,11.1,16
2012/10/12 3:37,4.8,16,5.2,16,5.7,2
2012/10/12 3:38,4.8,16,4.9,16,8.2,1
2012/10/12 3:39,4.8,16,4.9,16,7,16
2012/10/12 3:40,4.8,16,4.8,16,10.3,2
2012/10/12 3:41,5.1,16,5.1,16,13.5,16
2012/10/12 3:42,5.2,1,5.2,16,8.1,1
2012/10/12 3:43,4.7,1,5.2,16,8.3,1
2012/10/12 3:44,4.5,1,4.6,16,8.9,2
2012/10/12 3:45,4.2,1,4.6,16,6.5,2
2012/10/12 3:46,3.8,1,4.2,16,4.5,1
2012/10/12 3:47,3.8,1,3.9,16,8.2,2
2012/10/12 3:48,4.1,1,4.1,16,8.9,1
2012/10/12 3:49,4.4,1,4.5,16,13.1,16
2012/10/12 3:50,4.3,1,4.4,16,9.9,2
2012/10/12 3:51,3.8,1,4.2,16,6.2,2
2012/10/12 3:52,3.6,1,3.7,16,7.7,3
2012/10/12 3:53,3.4,1,3.6,1,5.2,16
2012/10/12 3:54,3.3,1,3.5,1,3.3,14
2012/10/12 3:55,3.5,1,3.5,1,8.7,1
2012/10/12 3:56,3.5,1,3.5,1,4.7,16
2012/10/12 3:57,3.6,1,3.6,1,6.9,2
2012/10/12 3:58,3.3,1,3.5,1,4.9,1
2012/10/12 3:59,2.8,1,3.2,1,3.1,4
2012/10/12 4:00,2.6,1,2.8,1,4.3,16
2012/10/12 4:01,2.5,2,2.6,1,4.1,3
2012/10/12 4:02,2.3,1,2.5,1,2.7,16
2012/10/12 4:03,2.4,1,2.4,1,6.8,14
2012/10/12 4:04,2.7,1,2.7,1,8.1,15
2012/10/12 4:05,2.4,2,2.7,1,4.7,16
2012/10/12 4:06,2.4,1,2.4,1,4.9,2
2012/10/12 4:07,2.5,1,2.5,1,8.1,15
2012/10/12 4:08,2.7,1,2.7,1,8.3,2
2012/10/12 4:09,2.8,1,2.9,1,6,3
2012/10/12 4:10,2.7,1,2.8,1,1.6,2
2012/10/12 4:11,2.8,1,2.8,1,5.4,5
2012/10/12 4:12,2.9,2,2.9,1,6.3,6
2012/10/12 4:13,2.6,2,2.9,1,4.9,6
2012/10/12 4:14,2.2,3,2.6,1,1.1,6
2012/10/12 4:15,2.2,3,2.2,1,3.7,7
2012/10/12 4:16,2.2,4,2.2,1,3.5,7
2012/10/12 4:17,2,4,2.2,1,4.2,4
2012/10/12 4:18,1.9,5,2,1,8.4,3
2012/10/12 4:19,2.2,5,2.2,1,10,2
2012/10/12 4:20,2.2,5,2.2,1,2.5,16
2012/10/12 4:21,2,4,2.2,1,3.2,14
2012/10/12 4:22,2,4,2,2,3.7,5
2012/10/12 4:23,2.1,4,2.1,2,8.1,1
2012/10/12 4:24,2.4,3,2.4,3,5.8,3
2012/10/12 4:25,2.7,3,2.7,3,9.3,1
2012/10/12 4:26,2.7,3,2.7,3,6,16
2012/10/12 4:27,2.7,3,2.7,3,2,5
2012/10/12 4:28,2.4,2,2.6,3,1.4,12
2012/10/12 4:29,2,2,2.3,3,4.5,10
2012/10/12 4:30,2.2,3,2.2,3,5.1,10
2012/10/12 4:31,2.4,2,2.4,3,6.1,11
2012/10/12 4:32,2.7,1,2.7,3,6.2,16
2012/10/12 4:33,2.6,1,2.7,3,4.8,15
2012/10/12 4:34,2.7,2,2.7,3,7.9,8
2012/10/12 4:35,2.5,3,2.7,3,6.1,4
2012/10/12 4:36,2.6,2,2.6,3,6.7,3
2012/10/12 4:37,2.7,16,2.7,1,2.6,15
2012/10/12 4:38,2.8,15,2.8,15,4.7,16
2012/10/12 4:39,3,1,3,1,6.9,12
2012/10/12 4:40,3.1,1,3.1,16,7.5,1
2012/10/12 4:41,3.1,1,3.1,16,7.8,1
2012/10/12 4:42,3.2,2,3.2,1,6.2,16
2012/10/12 4:43,3.1,1,3.2,1,6,2
2012/10/12 4:44,3.2,1,3.2,1,10,2
2012/10/12 4:45,3.2,1,3.3,1,8.2,16
2012/10/12 4:46,3.5,1,3.5,1,13.1,16
2012/10/12 4:47,3.8,1,3.8,1,9.2,16
2012/10/12 4:48,4.1,1,4.1,1,9.7,1
2012/10/12 4:49,4.1,1,4.1,1,8.6,16
2012/10/12 4:50,4.4,1,4.4,1,10.7,15
2012/10/12 4:51,4.6,16,4.6,16,11.3,16
2012/10/12 4:52,4.7,16,4.7,16,8.7,16
2012/10/12 4:53,4.7,16,4.7,16,5.4,15
2012/10/12 4:54,4.8,16,4.9,16,7.7,16
2012/10/12 4:55,5.1,16,5.1,16,12.2,16
2012/10/12 4:56,4.7,16,5.1,16,7.1,15
2012/10/12 4:57,4.4,16,4.7,16,5.5,16
2012/10/12 4:58,4.3,16,4.4,16,8.2,1
2012/10/12 4:59,4.5,16,4.5,16,9,16
2012/10/12 5:00,4.2,16,4.5,16,8.1,2
2012/10/12 5:01,3.9,16,4.2,16,6.1,16
2012/10/12 5:02,3.6,16,3.9,16,5.6,16
2012/10/12 5:03,3.8,16,3.8,16,8.1,2
2012/10/12 5:04,3.7,16,3.8,16,6.9,2
2012/10/12 5:05,3.3,16,3.6,16,9.3,16
2012/10/12 5:06,3.6,16,3.6,16,10,15
2012/10/12 5:07,3.8,1,3.8,16,7.1,2
2012/10/12 5:08,3.6,1,3.8,16,6.4,1
2012/10/12 5:09,3.4,1,3.6,16,7,2
2012/10/12 5:10,3.4,1,3.4,16,6.9,1
2012/10/12 5:11,3.3,1,3.4,16,5.8,3
2012/10/12 5:12,3.5,1,3.5,16,8.5,1
2012/10/12 5:13,3.4,1,3.5,16,6.8,2
2012/10/12 5:14,3.2,1,3.4,1,2.5,12
2012/10/12 5:15,3,1,3.2,1,3.9,2
2012/10/12 5:16,2.7,1,3,1,3.6,4
2012/10/12 5:17,2.5,1,2.7,1,3.7,1
2012/10/12 5:18,2.6,1,2.6,1,4.8,2
2012/10/12 5:19,2.6,2,2.6,1,3.9,2
2012/10/12 5:20,2.6,2,2.6,1,5.1,5
2012/10/12 5:21,2.6,2,2.6,1,6.9,2
2012/10/12 5:22,2.6,2,2.6,1,7.8,16
2012/10/12 5:23,2.5,2,2.6,1,5.8,1
2012/10/12 5:24,2.5,2,2.6,1,2.7,6
2012/10/12 5:25,2.4,2,2.5,1,2.2,14
2012/10/12 5:26,2.4,2,2.5,1,4.4,2
2012/10/12 5:27,2.8,2,2.8,2,8.7,5
2012/10/12 5:28,3,3,3,3,6.4,7
2012/10/12 5:29,3,3,3,3,4.2,9
2012/10/12 5:30,2.9,3,3,3,3.7,8
2012/10/12 5:31,2.7,3,2.8,3,3.5,11
2012/10/12 5:32,2.5,5,2.7,3,3.2,11
2012/10/12 5:33,2.4,7,2.5,3,3.1,14
2012/10/12 5:34,2.6,10,2.6,3,5.6,11
2012/10/12 5:35,2.8,11,2.8,3,6.3,14
2012/10/12 5:36,3,11,3,3,6.1,15
2012/10/12 5:37,2.7,12,3,3,6.5,15
2012/10/12 5:38,2.4,13,2.7,3,2.7,14
2012/10/12 5:39,2.1,13,2.4,3,1.4,2
2012/10/12 5:40,2.1,13,2.1,11,4.1,14
2012/10/12 5:41,2.2,13,2.2,11,5.7,10
2012/10/12 5:42,2.6,14,2.6,11,10.6,14
2012/10/12 5:43,2.7,14,2.7,11,5.7,15
2012/10/12 5:44,2.4,14,2.7,11,2.2,14
2012/10/12 5:45,2.1,14,2.4,11,1,12
2012/10/12 5:46,1.9,14,2.1,11,2.5,1
2012/10/12 5:47,1.9,14,1.9,12,6.8,15
2012/10/12 5:48,2,14,2,14,6.1,16
2012/10/12 5:49,2,15,2,14,1.8,6
2012/10/12 5:50,1.9,15,2,14,0.9,6
2012/10/12 5:51,1.9,15,2,14,3.1,7
2012/10/12 5:52,1.5,16,1.9,14,5.1,8
2012/10/12 5:53,1.6,8,1.6,14,4.3,9
2012/10/12 5:54,1.8,9,1.8,14,3.9,11
2012/10/12 5:55,1.8,9,1.8,14,2.5,10
2012/10/12 5:56,1.9,10,1.9,14,4.5,9
2012/10/12 5:57,1.8,9,1.9,14,4.1,9
2012/10/12 5:58,1.8,10,1.8,15,3.5,10
2012/10/12 5:59,2.1,10,2.1,10,5.1,11
2012/10/12 6:00,2.3,10,2.3,10,4.5,9
2012/10/12 6:01,2.4,10,2.4,10,3.9,10
2012/10/12 6:02,2.4,10,2.4,10,3.6,10
2012/10/12 6:03,2.1,10,2.3,10,1.5,9
2012/10/12 6:04,1.9,11,2.1,10,0.8,13
2012/10/12 6:05,1.9,11,1.9,10,0.9,12
2012/10/12 6:06,1.8,11,1.9,10,2,12
2012/10/12 6:07,1.8,11,1.8,10,2.1,11
2012/10/12 6:08,1.6,11,1.8,10,1.8,10
2012/10/12 6:09,1.4,11,1.6,10,3,9
2012/10/12 6:10,1.3,11,1.4,10,3,9
2012/10/12 6:11,1.1,11,1.3,10,2.1,10
2012/10/12 6:12,1.1,11,1.1,10,3,9
2012/10/12 6:13,1.2,11,1.2,10,2.4,11
2012/10/12 6:14,1.3,10,1.3,11,2.5,10
2012/10/12 6:15,1.5,10,1.5,11,2.9,11
2012/10/12 6:16,1.6,10,1.6,11,3.3,11
2012/10/12 6:17,1.8,10,1.8,11,3.6,10
2012/10/12 6:18,2,10,2,10,4.3,10
2012/10/12 6:19,2,10,2,10,3.9,10
2012/10/12 6:20,2,10,2,10,4.8,9
2012/10/12 6:21,2.1,10,2.1,10,5.1,10
2012/10/12 6:22,2.2,10,2.2,10,6.2,9
2012/10/12 6:23,2.3,10,2.3,10,6.7,10
2012/10/12 6:24,2.2,10,2.3,10,2,8
2012/10/12 6:25,2.1,10,2.2,10,3,8
2012/10/12 6:26,2,10,2.1,10,3,5
2012/10/12 6:27,1.9,9,1.9,10,3.5,6
2012/10/12 6:28,1.9,8,1.9,10,3.9,7
2012/10/12 6:29,1.9,8,1.9,10,3.3,7
2012/10/12 6:30,1.9,8,2,10,3.1,6
2012/10/12 6:31,1.9,8,1.9,10,3.5,8
2012/10/12 6:32,1.7,8,1.9,10,2.9,8
2012/10/12 6:33,1.8,7,1.8,10,4.3,4
2012/10/12 6:34,1.9,7,1.9,10,3.5,3
2012/10/12 6:35,2.1,7,2.1,10,5.6,6
2012/10/12 6:36,2.4,6,2.4,6,8.2,5
2012/10/12 6:37,2.5,6,2.5,6,5.1,6
2012/10/12 6:38,2.4,6,2.5,6,3.8,6
2012/10/12 6:39,2.4,6,2.4,6,4.7,5
2012/10/12 6:40,2.4,6,2.4,6,4.2,4
2012/10/12 6:41,2.3,5,2.4,6,1.9,2
2012/10/12 6:42,2.2,5,2.3,6,1.5,10
2012/10/12 6:43,2.1,5,2.3,6,1.9,5
2012/10/12 6:44,2,5,2.1,6,3.8,1
2012/10/12 6:45,2.1,5,2.1,6,7.8,16
2012/10/12 6:46,1.9,4,2.1,6,4.7,15
2012/10/12 6:47,1.8,4,1.9,6,3.7,11
2012/10/12 6:48,1.9,2,1.9,6,4.7,15
2012/10/12 6:49,1.8,1,1.9,6,2.7,16
2012/10/12 6:50,1.8,1,1.8,6,2.5,6
2012/10/12 6:51,1.8,1,1.9,5,2.9,4
2012/10/12 6:52,1.8,16,1.8,5,1.6,13
2012/10/12 6:53,1.9,14,1.9,5,2,11
2012/10/12 6:54,1.9,14,1.9,5,2.1,13
2012/10/12 6:55,1.6,14,1.8,5,2.6,16
2012/10/12 6:56,1.7,14,1.7,4,4.1,16
2012/10/12 6:57,1.6,14,1.7,3,2.5,8
2012/10/12 6:58,1.4,13,1.6,2,2.1,9
2012/10/12 6:59,1.3,13,1.3,1,0.9,11
2012/10/12 7:00,1.3,12,1.3,1,3.1,8
2012/10/12 7:01,1.3,12,1.3,15,3.2,9
2012/10/12 7:02,1.4,11,1.4,15,3.5,8
2012/10/12 7:03,1.5,10,1.5,14,4.2,6
2012/10/12 7:04,1.5,8,1.5,14,1.9,7
2012/10/12 7:05,1.4,8,1.5,14,1.4,9
2012/10/12 7:06,1.2,8,1.4,14,1.4,10
2012/10/12 7:07,1.2,8,1.2,14,4.3,16
2012/10/12 7:08,1.3,7,1.3,11,4.1,1
2012/10/12 7:09,1.4,7,1.4,11,3.7,16
2012/10/12 7:10,1.7,7,1.7,7,9.1,16
2012/10/12 7:11,2,6,2,6,7.7,15
2012/10/12 7:12,2.1,2,2.1,5,5.6,1
2012/10/12 7:13,2,1,2.1,5,2.7,2
2012/10/12 7:14,2.2,16,2.2,16,5.6,16
2012/10/12 7:15,2.4,16,2.4,16,7.5,15
2012/10/12 7:16,2.6,1,2.6,1,5.2,1
2012/10/12 7:17,2.6,1,2.7,1,3.9,5
2012/10/12 7:18,2.6,1,2.6,1,3.7,3
2012/10/12 7:19,2.7,1,2.7,1,6.9,4
2012/10/12 7:20,2.5,2,2.7,1,5.5,3
2012/10/12 7:21,2.4,2,2.5,1,5.4,3
2012/10/12 7:22,2.1,2,2.3,1,1.3,1
2012/10/12 7:23,2.1,2,2.2,1,1.4,16
2012/10/12 7:24,2,3,2.1,1,2,6
2012/10/12 7:25,1.8,3,2,1,2.1,6
2012/10/12 7:26,1.7,3,1.8,1,2.6,13
2012/10/12 7:27,1.7,4,1.7,1,3.9,9
2012/10/12 7:28,1.6,5,1.7,1,1.8,11
2012/10/12 7:29,1.5,6,1.6,1,3.5,5
2012/10/12 7:30,1.4,6,1.5,2,3.5,5
2012/10/12 7:31,1.2,6,1.4,2,3,4
2012/10/12 7:32,1.5,5,1.5,2,4.3,4
2012/10/12 7:33,1.5,5,1.5,2,3.7,2
2012/10/12 7:34,1.6,5,1.6,3,4.7,7
2012/10/12 7:35,1.6,4,1.6,3,2.7,16
2012/10/12 7:36,1.6,4,1.7,3,3.3,1
2012/10/12 7:37,1.6,3,1.6,4,2.5,15
2012/10/12 7:38,1.7,3,1.7,4,3,2
2012/10/12 7:39,1.8,2,1.8,2,6.2,1
2012/10/12 7:40,2.1,2,2.1,2,6.2,1
2012/10/12 7:41,2.3,2,2.3,2,6.1,1
2012/10/12 7:42,2.3,1,2.3,2,6.1,16
2012/10/12 7:43,2.5,1,2.5,1,5.6,1
2012/10/12 7:44,2.5,16,2.5,1,3.3,14
2012/10/12 7:45,2.5,16,2.5,1,3.6,15
2012/10/12 7:46,2.5,16,2.5,1,2.7,15
2012/10/12 7:47,2.5,16,2.5,1,1.8,16
2012/10/12 7:48,2.4,16,2.5,1,1,2
2012/10/12 7:49,2.2,16,2.4,1,4.3,2
2012/10/12 7:50,2.2,16,2.2,1,5,4
2012/10/12 7:51,2.1,1,2.2,1,4.2,4
2012/10/12 7:52,2,1,2.1,1,4.8,1
2012/10/12 7:53,1.8,1,2,1,3.5,16
2012/10/12 7:54,2,1,2,16,7.2,16
2012/10/12 7:55,2.2,1,2.2,16,7,15
2012/10/12 7:56,2.3,1,2.3,16,4.7,15
2012/10/12 7:57,2.6,1,2.6,1,6.4,16
2012/10/12 7:58,2.8,1,2.8,1,6.4,15
2012/10/12 7:59,3.1,16,3.2,16,9.1,1
2012/10/12 8:00,3,16,3.2,16,5,16
2012/10/12 8:01,3,16,3,16,7.8,16
2012/10/12 8:02,3.2,16,3.2,16,7.1,1
2012/10/12 8:03,3.3,16,3.3,16,7.8,1
2012/10/12 8:04,3.2,16,3.3,16,4.9,2
2012/10/12 8:05,2.9,16,3.2,16,3,4
2012/10/12 8:06,3,1,3,16,4.3,1
2012/10/12 8:07,2.9,1,3,16,3.6,2
2012/10/12 8:08,2.7,1,2.8,16,2.9,15
2012/10/12 8:09,2.7,1,2.7,16,8.1,3
2012/10/12 8:10,2.8,1,2.8,16,5.4,1
2012/10/12 8:11,2.8,1,2.9,16,4.9,1
2012/10/12 8:12,2.7,1,2.8,16,5.2,2
2012/10/12 8:13,2.6,1,2.7,16,5.1,3
2012/10/12 8:14,2.6,1,2.6,16,6.5,16
2012/10/12 8:15,2.7,1,2.7,16,4.8,3
2012/10/12 8:16,2.6,1,2.7,1,5.4,1
2012/10/12 8:17,2.6,1,2.6,1,3.6,3
2012/10/12 8:18,2.6,2,2.6,1,3.1,3
2012/10/12 8:19,2.4,2,2.6,1,3.7,5
2012/10/12 8:20,2.2,2,2.3,1,2.5,14
2012/10/12 8:21,2,2,2.2,1,2.7,2
2012/10/12 8:22,1.9,2,2,1,2.1,3
2012/10/12 8:23,1.8,2,1.9,1,3.2,1
2012/10/12 8:24,1.8,2,1.8,1,6.2,2
2012/10/12 8:25,2,2,2,1,8.7,2
2012/10/12 8:26,2.2,2,2.2,1,5.7,2
2012/10/12 8:27,2.3,2,2.3,2,5.6,1
2012/10/12 8:28,2.3,2,2.3,2,2.9,16
2012/10/12 8:29,2.2,1,2.3,2,3.9,1
2012/10/12 8:30,2.3,1,2.3,2,3.9,16
2012/10/12 8:31,2.4,1,2.4,1,3.7,1
2012/10/12 8:32,2.7,1,2.7,1,5.7,2
2012/10/12 8:33,2.6,1,2.7,1,3.8,15
2012/10/12 8:34,2.5,1,2.6,1,1.8,2
2012/10/12 8:35,2.1,1,2.4,1,1.1,16
2012/10/12 8:36,1.8,1,2.1,1,0.9,16
2012/10/12 8:37,1.6,1,1.8,1,2,16
2012/10/12 8:38,1.7,1,1.7,1,4.7,16
2012/10/12 8:39,1.8,1,1.8,1,5.5,16
2012/10/12 8:40,1.8,1,1.8,1,4.8,16
2012/10/12 8:41,1.9,1,1.9,1,7.4,1
2012/10/12 8:42,2.1,16,2.1,1,9.7,16
2012/10/12 8:43,2.4,16,2.4,1,7.7,16
2012/10/12 8:44,2.6,16,2.6,16,4.9,16
2012/10/12 8:45,2.8,16,2.8,16,3.5,16
2012/10/12 8:46,3.1,16,3.1,16,6.2,2
2012/10/12 8:47,3.2,1,3.2,16,4.2,3
2012/10/12 8:48,3.3,1,3.3,1,6.8,1
2012/10/12 8:49,3.2,16,3.2,1,5,1
2012/10/12 8:50,3.4,1,3.4,1,5.2,15
2012/10/12 8:51,3.5,16,3.5,1,7.1,15
2012/10/12 8:52,3.2,1,3.5,1,6.1,15
2012/10/12 8:53,3,1,3.2,1,4.5,2
2012/10/12 8:54,3.1,1,3.1,1,5.6,1
2012/10/12 8:55,3.3,1,3.3,1,7,2
2012/10/12 8:56,3.3,1,3.3,1,7,1
2012/10/12 8:57,3.4,1,3.4,1,6,2
2012/10/12 8:58,3.4,1,3.4,1,7,1
2012/10/12 8:59,3.7,1,3.7,1,10.1,2
2012/10/12 9:00,3.8,1,3.8,1,7,2
2012/10/12 9:01,3.9,2,3.9,2,8.4,3
2012/10/12 9:02,4.1,2,4.1,2,7.5,3
2012/10/12 9:03,4.2,2,4.2,2,6.2,3
2012/10/12 9:04,4.2,2,4.2,2,6.3,2
2012/10/12 9:05,4,2,4.1,2,4.8,2
2012/10/12 9:06,3.9,2,4,2,5.1,3
2012/10/12 9:07,4,2,4,2,7.1,2
2012/10/12 9:08,4,2,4,2,7.1,1
2012/10/12 9:09,4,2,4,2,7.8,15
2012/10/12 9:10,4.1,1,4.1,2,8.7,15
2012/10/12 9:11,4.3,1,4.3,1,10.9,1
2012/10/12 9:12,4.5,1,4.5,1,10.6,15
2012/10/12 9:13,4.8,1,4.8,1,11.9,15
2012/10/12 9:14,5,1,5,1,8.6,15
2012/10/12 9:15,5.3,1,5.3,16,9.4,1
2012/10/12 9:16,5.6,16,5.6,16,9.5,1
2012/10/12 9:17,6,16,6,16,11.6,16
2012/10/12 9:18,6.1,16,6.2,16,7.9,15
2012/10/12 9:19,6,16,6.1,16,7.4,15
2012/10/12 9:20,5.8,16,5.9,16,6.7,16
2012/10/12 9:21,5.4,16,5.7,16,7.4,16
2012/10/12 9:22,5,16,5.4,16,6,2
2012/10/12 9:23,4.6,1,4.9,16,4.7,1
2012/10/12 9:24,4.6,1,4.6,16,10.5,1
2012/10/12 9:25,4.6,1,4.7,16,10,1
2012/10/12 9:26,4.8,1,4.8,16,10.2,1
2012/10/12 9:27,4.5,1,4.7,16,8.6,16
2012/10/12 9:28,4.3,1,4.5,16,6.8,3
2012/10/12 9:29,4.2,1,4.3,16,4.9,2
2012/10/12 9:30,4.1,1,4.2,16,6.2,1
2012/10/12 9:31,4.1,1,4.1,16,7.4,3
2012/10/12 9:32,4.2,2,4.3,16,9.5,2
2012/10/12 9:33,4.4,2,4.4,1,5.7,3
2012/10/12 9:34,4.4,2,4.5,1,7.8,1
2012/10/12 9:35,4.2,2,4.4,1,6.4,1
2012/10/12 9:36,4,2,4.2,1,7.9,2
2012/10/12 9:37,4.1,2,4.1,1,6.5,3
2012/10/12 9:38,4,2,4.1,2,4.9,3
2012/10/12 9:39,4.2,3,4.2,2,5.4,4
2012/10/12 9:40,4.4,3,4.4,2,8.4,3
2012/10/12 9:41,4.4,3,4.5,2,6.9,4
2012/10/12 9:42,4.1,3,4.4,2,3.8,5
2012/10/12 9:43,3.8,3,4.1,2,3.5,7
2012/10/12 9:44,3.5,4,3.8,3,3.3,4
2012/10/12 9:45,3.4,4,3.5,3,3,4
2012/10/12 9:46,3.1,4,3.4,3,2.6,3
2012/10/12 9:47,2.7,4,3,3,3.5,4
2012/10/12 9:48,2.5,4,2.7,3,3.5,5
2012/10/12 9:49,2.3,4,2.5,3,3,2
2012/10/12 9:50,1.9,4,2.3,3,3.9,1
2012/10/12 9:51,1.9,4,1.9,3,6.3,1
2012/10/12 9:52,2,3,2,3,6.4,15
2012/10/12 9:53,2.1,2,2.1,3,5.8,15
2012/10/12 9:54,2.2,2,2.2,4,4.3,16
2012/10/12 9:55,2.3,2,2.3,4,5.5,1
2012/10/12 9:56,2.5,1,2.5,4,4.7,1
2012/10/12 9:57,2.5,1,2.5,4,4.7,1
2012/10/12 9:58,2.6,1,2.6,1,3.9,5
2012/10/12 9:59,2.5,1,2.6,1,2.6,15
2012/10/12 10:00,2.5,1,2.5,1,2.9,16
2012/10/12 10:01,2.4,1,2.5,1,3.5,2
2012/10/12 10:02,2.3,1,2.4,1,3.3,1
2012/10/12 10:03,2.4,2,2.4,1,4.4,1
2012/10/12 10:04,2.3,1,2.4,1,6,2
2012/10/12 10:05,2.4,1,2.4,1,4.9,2
2012/10/12 10:06,2.2,1,2.3,1,2.5,1
2012/10/12 10:07,2.2,1,2.2,1,4.4,1
2012/10/12 10:08,2.5,1,2.5,1,8.5,16
2012/10/12 10:09,2.7,1,2.7,1,6.1,1
2012/10/12 10:10,2.8,1,2.9,1,4.3,1
2012/10/12 10:11,2.8,1,2.8,1,4.5,16
2012/10/12 10:12,2.7,1,2.8,1,4.4,3
2012/10/12 10:13,3,1,3,1,7.6,2
2012/10/12 10:14,3.3,1,3.3,1,7.9,3
2012/10/12 10:15,3.3,2,3.3,1,6.2,3
2012/10/12 10:16,3.6,2,3.6,2,7,4
2012/10/12 10:17,4,2,4,2,11.9,3
2012/10/12 10:18,3.9,3,4.1,2,6.8,3
2012/10/12 10:19,3.8,3,3.9,2,4.1,2
2012/10/12 10:20,3.8,3,3.8,2,3.2,4
2012/10/12 10:21,3.8,3,3.8,2,2.9,6
2012/10/12 10:22,3.9,3,3.9,2,4.4,2
2012/10/12 10:23,3.6,3,3.8,2,5.2,16
2012/10/12 10:24,3.3,3,3.6,2,5.8,16
2012/10/12 10:25,3.1,2,3.3,2,3,2
2012/10/12 10:26,3,2,3.1,2,3.3,2
2012/10/12 10:27,2.5,2,2.9,2,4.1,3
2012/10/12 10:28,2.2,2,2.4,3,2.9,4
2012/10/12 10:29,2.2,3,2.2,3,3.8,6
2012/10/12 10:30,2.2,3,2.2,3,3.6,4
2012/10/12 10:31,2.3,3,2.3,3,4.4,4
2012/10/12 10:32,2.4,3,2.4,3,5.5,5
2012/10/12 10:33,2.5,4,2.5,3,6,4
2012/10/12 10:34,2.6,4,2.6,3,6,6
2012/10/12 10:35,2.7,4,2.7,2,4.9,5
2012/10/12 10:36,2.7,5,2.7,2,4.2,3
2012/10/12 10:37,2.7,5,2.7,4,5.2,3
2012/10/12 10:38,3,5,3,5,7.5,3
2012/10/12 10:39,3.3,4,3.3,5,8.3,3
2012/10/12 10:40,3.7,4,3.7,4,9.2,2
2012/10/12 10:41,4,4,4,4,9.9,2
2012/10/12 10:42,4,4,4.1,4,4.9,2
2012/10/12 10:43,4.1,3,4.1,4,9.4,3
2012/10/12 10:44,4.3,3,4.3,3,9,4
2012/10/12 10:45,4.3,3,4.3,3,5.1,3
2012/10/12 10:46,4.1,3,4.3,3,3,5
2012/10/12 10:47,4.1,3,4.2,3,3.1,3
2012/10/12 10:48,4,3,4.1,3,5.6,4
2012/10/12 10:49,3.7,3,4,3,3.2,5
2012/10/12 10:50,3.1,3,3.6,3,1.8,4
2012/10/12 10:51,2.6,3,3.1,3,2.6,1
2012/10/12 10:52,2.6,4,2.6,3,3,4
2012/10/12 10:53,2.2,4,2.6,3,3,4
2012/10/12 10:54,1.8,4,2.2,3,2,3
2012/10/12 10:55,1.7,4,1.8,3,2.6,4
2012/10/12 10:56,1.8,4,1.8,3,2.1,4
2012/10/12 10:57,1.6,4,1.8,3,1.3,4
2012/10/12 10:58,1.3,4,1.6,3,1.5,12
2012/10/12 10:59,1.2,3,1.3,3,1.8,15
2012/10/12 11:00,1.4,3,1.4,3,5.4,1
2012/10/12 11:01,1.5,3,1.5,3,5,16
2012/10/12 11:02,1.4,3,1.5,4,2.7,1
2012/10/12 11:03,1.5,2,1.5,4,4.2,3
2012/10/12 11:04,1.5,2,1.5,4,2.5,4
2012/10/12 11:05,1.7,2,1.7,4,4.1,3
2012/10/12 11:06,1.9,2,1.9,2,5.2,3
2012/10/12 11:07,2.1,2,2.1,2,3.5,2
2012/10/12 11:08,2.2,2,2.2,2,3.1,2